Location: Unspecified
(0.0000°N, 0.0000°E)
Time: 04:43:17
(UTC+00:00)

SRMSAT - Pass Details

Date: 28 March 2019
Orbit: 848 x 866 km, 20.0° (Epoch: 17 June)

Event Time Altitude Azimuth Distance (km) Brightness Sun altitude
Rises 20:19:12 0° 231° (SW) 3,411 ? -33.5°
Reaches altitude 10° 20:22:08 10° 220° (SW) 2,472 ? -34.2°
Enters shadow 20:24:04 18° 206° (SSW) 1,943 ? -34.7°
